Perth, Western Australia

8:18 PM AWST on February 11, 2016 (GMT +0800)
Perth International

Weather History for YPPH - December, 2012

Change the Weather History Date:

Monday, December 17, 2012

  Actual Average Record
Temperature  
Mean Temperature 65 °F -  
Max Temperature 77 °F 87 °F 96 °F (2003)
Min Temperature 53 °F 61 °F 53 °F (2001)
Growing Degree Days 15 (Base 50)    
Moisture  
Dew Point 56 °F    
Average Humidity 70    
Maximum Humidity 100    
Minimum Humidity 35    
Precipitation  
Precipitation 0.00 in 0.01 in - ()
Sea Level Pressure  
Sea Level Pressure 29.85 in    
Wind  
Wind Speed 9 mph ()    
Max Wind Speed 16 mph    
Max Gust Speed -    
Visibility 7.5 miles    
Events Fog    
Averages and records for this station are not official NWS values.
T = Trace of Precipitation, MM = Missing Value Source: Averaged Metar Reports

Daily Weather History Graph

Daily Weather History Graph

Search for Another Location

Airport or City:

Trip Planner

Search our weather history database for the weather conditions in past years. The results will help you decide how hot, cold, wet, or windy it might be!

Date:

Astronomy

Dec. 17, 2012 Rise Set
Actual Time 5:05 AM AWST 7:19 PM AWST
Civil Twilight 4:37 AM AWST 7:47 PM AWST
Nautical Twilight 4:02 AM AWST 8:22 PM AWST
Astronomical Twilight 3:25 AM AWST 8:59 PM AWST
Moon 9:13 AM AWST (12/17) 10:29 PM AWST (12/17)
Length of Visible Light 15h 10m
Length of Day
14h 14m
Waxing Crescent, 19% of the Moon is Illuminated
Dec 17
Waxing Crescent
Dec 20
First Quarter
Dec 28
Full
Jan 5
Last Quarter
Jan 12
New

Hourly Weather History & Observations

Time (AWST) Temp. Dew Point Humidity Pressure Visibility Wind Dir Wind Speed Gust Speed Precip Events Conditions
12:00 AM 65 °F 60 °F 79% 29.84 in 19 mi South 10.4 mph - -   Partly Cloudy
12:00 AM 66.2 °F 60.8 °F 83% 29.83 in - South 10.4 mph - N/A   Clear
12:30 AM 64.4 °F 60.8 °F 88% 29.83 in - SSW 10.4 mph - N/A   Clear
1:00 AM 64.4 °F 59.0 °F 83% 29.83 in - SSW 8.1 mph - N/A   Clear
1:30 AM 62.6 °F 59.0 °F 88% 29.80 in - SSW 6.9 mph - N/A   Clear
2:00 AM 62 °F 60 °F 89% 29.82 in - SSW 6.9 mph - -  
2:00 AM 62.6 °F 59.0 °F 88% 29.80 in - SSW 6.9 mph - N/A   Clear
2:30 AM 59.0 °F 57.2 °F 94% 29.80 in - SSW 5.8 mph - N/A   Clear
3:00 AM 58 °F 56 °F 91% 29.81 in 16 mi SSW 5.8 mph - -   Partly Cloudy
3:00 AM 57.2 °F 55.4 °F 94% 29.80 in - SSW 5.8 mph - N/A   Clear
3:30 AM 55.4 °F 55.4 °F 100% 29.80 in - South 3.5 mph - N/A   Clear
4:00 AM 55.4 °F 53.6 °F 94% 29.80 in 6.2 mi NE 3.5 mph - N/A   Partly Cloudy
4:30 AM 55.4 °F 53.6 °F 94% 29.80 in 6.2 mi NNE 3.5 mph - N/A Fog Partly Cloudy
5:00 AM 54 °F 53 °F 94% 29.83 in - Calm Calm - -  
5:00 AM 53.6 °F 53.6 °F 100% 29.83 in 6.2 mi Calm Calm - N/A Fog Partly Cloudy
5:30 AM 53.6 °F 51.8 °F 94% 29.83 in 6.2 mi ESE 3.5 mph - N/A   Scattered Clouds
5:45 AM 55.4 °F 53.6 °F 94% 29.83 in 5.0 mi South 6.9 mph - N/A   Mostly Cloudy
6:00 AM 56 °F 55 °F 94% 29.85 in 11 mi South 8.1 mph - -   Partly Cloudy
6:00 AM 55.4 °F 55.4 °F 100% 29.83 in 6.2 mi South 8.1 mph - N/A   Mostly Cloudy
6:16 AM 59.0 °F 57.2 °F 94% 29.83 in 6.2 mi SSE 6.9 mph - N/A   Mostly Cloudy
6:30 AM 60.8 °F 59.0 °F 94% 29.86 in 6.2 mi South 9.2 mph - N/A   Scattered Clouds
6:48 AM 60.8 °F 59.0 °F 94% 29.86 in 6.2 mi South 12.7 mph - N/A   Scattered Clouds
7:00 AM 62.6 °F 59.0 °F 88% 29.86 in 6.2 mi South 12.7 mph - N/A   Scattered Clouds
7:19 AM 64.4 °F 59.0 °F 83% 29.86 in 6.2 mi South 11.5 mph - N/A   Scattered Clouds
7:30 AM 64.4 °F 59.0 °F 83% 29.86 in 6.2 mi South 15.0 mph - N/A   Scattered Clouds
8:00 AM 66 °F 58 °F 68% 29.88 in - South 13.8 mph - -  
8:00 AM 66.2 °F 57.2 °F 73% 29.86 in 6.2 mi South 13.8 mph - N/A   Mostly Cloudy
8:30 AM 68.0 °F 59.0 °F 73% 29.86 in 6.2 mi SSW 10.4 mph - N/A   Overcast
9:00 AM 69 °F 58 °F 60% 29.87 in 12 mi South 12.7 mph - -   Partly Cloudy
9:00 AM 69.8 °F 59.0 °F 68% 29.86 in 6.2 mi South 12.7 mph - N/A   Overcast
9:13 AM 69.8 °F 59.0 °F 68% 29.86 in 6.2 mi SSW 12.7 mph - N/A   Overcast
9:30 AM 69.8 °F 57.2 °F 64% 29.86 in 6.2 mi SW 10.4 mph - N/A   Mostly Cloudy
10:00 AM 71.6 °F 57.2 °F 60% 29.86 in 6.2 mi SW 9.2 mph - N/A   Mostly Cloudy
10:30 AM 73.4 °F 57.2 °F 57% 29.86 in 6.2 mi South 10.4 mph - N/A   Scattered Clouds
11:00 AM 74 °F 55 °F 42% 29.88 in - West 13.8 mph - -  
11:00 AM 73.4 °F 55.4 °F 53% 29.86 in 6.2 mi West 13.8 mph - N/A   Partly Cloudy
11:30 AM 73.4 °F 55.4 °F 53% 29.86 in 6.2 mi West 16.1 mph - N/A   Partly Cloudy
12:00 PM 74 °F 56 °F 43% 29.87 in 12 mi West 16.1 mph - -   Partly Cloudy
12:00 PM 75.2 °F 55.4 °F 50% 29.86 in 6.2 mi West 16.1 mph - N/A   Partly Cloudy
12:30 PM 75.2 °F 55.4 °F 50% 29.86 in 6.2 mi WSW 15.0 mph - N/A   Partly Cloudy
1:00 PM 75.2 °F 55.4 °F 50% 29.86 in 6.2 mi West 16.1 mph - N/A   Partly Cloudy
1:30 PM 75.2 °F 55.4 °F 50% 29.86 in 6.2 mi SW 15.0 mph - N/A   Partly Cloudy
2:00 PM 76 °F 54 °F 36% 29.86 in - SW 12.7 mph - -  
2:00 PM 77.0 °F 53.6 °F 44% 29.86 in 6.2 mi SW 12.7 mph - N/A   Partly Cloudy
2:30 PM 75.2 °F 55.4 °F 50% 29.86 in 6.2 mi WSW 15.0 mph - N/A   Partly Cloudy
3:00 PM 75 °F 56 °F 40% 29.85 in 16 mi WSW 13.8 mph - -   Partly Cloudy
3:00 PM 75.2 °F 55.4 °F 50% 29.83 in 6.2 mi West 15.0 mph - N/A   Partly Cloudy
3:30 PM 75.2 °F 53.6 °F 47% 29.83 in 6.2 mi SW 15.0 mph - N/A   Partly Cloudy
4:00 PM 75.2 °F 53.6 °F 47% 29.83 in 6.2 mi WSW 13.8 mph - N/A   Partly Cloudy
4:30 PM 75.2 °F 53.6 °F 47% 29.83 in 6.2 mi SSW 15.0 mph - N/A   Partly Cloudy
5:00 PM 74 °F 52 °F 35% 29.84 in - SSW 15.0 mph - -  
5:00 PM 73.4 °F 51.8 °F 47% 29.83 in 6.2 mi SSW 15.0 mph - N/A   Partly Cloudy
5:30 PM 73.4 °F 53.6 °F 50% 29.83 in 6.2 mi SW 16.1 mph - N/A   Partly Cloudy
6:00 PM 72 °F 55 °F 45% 29.85 in 16 mi SW 16.1 mph - -   Partly Cloudy
6:00 PM 71.6 °F 55.4 °F 57% 29.83 in 6.2 mi SW 16.1 mph - N/A   Partly Cloudy
6:30 PM 71.6 °F 55.4 °F 57% 29.83 in 6.2 mi SW 16.1 mph - N/A   Partly Cloudy
7:00 PM 69.8 °F 55.4 °F 60% 29.83 in 6.2 mi SSW 12.7 mph - N/A   Partly Cloudy
7:30 PM 68.0 °F 55.4 °F 64% 29.86 in 6.2 mi SSW 12.7 mph - N/A   Partly Cloudy
8:00 PM 68 °F 57 °F 59% 29.86 in - WSW 10.4 mph - -  
8:00 PM 68.0 °F 57.2 °F 68% 29.86 in 6.2 mi WSW 10.4 mph - N/A   Partly Cloudy
8:30 PM 66.2 °F 57.2 °F 73% 29.86 in 6.2 mi SW 9.2 mph - N/A   Partly Cloudy
9:00 PM 66 °F 57 °F 65% 29.88 in 16 mi SW 9.2 mph - -   Partly Cloudy
9:00 PM 66.2 °F 57.2 °F 73% 29.86 in 6.2 mi SW 9.2 mph - N/A   Partly Cloudy
9:30 PM 66.2 °F 57.2 °F 73% 29.86 in 6.2 mi SW 10.4 mph - N/A   Partly Cloudy
10:00 PM 66.2 °F 57.2 °F 73% 29.89 in 6.2 mi SSW 10.4 mph - N/A   Partly Cloudy
10:30 PM 66.2 °F 57.2 °F 73% 29.86 in 6.2 mi SSW 9.2 mph - N/A   Partly Cloudy
11:00 PM 65 °F 56 °F 66% 29.88 in - SSW 10.4 mph - -  
11:00 PM 66.2 °F 57.2 °F 73% 29.86 in 6.2 mi SSW 10.4 mph - N/A   Partly Cloudy
11:30 PM 66.2 °F 57.2 °F 73% 29.86 in 6.2 mi South 11.5 mph - N/A   Mostly Cloudy